Location: Hawks Ness
(60.2333°N, 1.1667°W)
Time: 00:47:57
(UTC+00:00)

SL-08 ROCKET BODY - Pass Details

Date: 22 October 2019
Orbit: 898 x 962 km, 82.9° (Epoch: 20 November)

Event Time Altitude Azimuth Distance (km) Brightness Sun altitude
Exits shadow 03:02:55 70° 143° (SE) 982 4.4 -29.2°
Maximum altitude 03:03:26 76° 99° (E) 960 4.4 -29.2°
Drops below altitude 10° 03:09:30 10° 15° (NNE) 2,663 7.3 -28.5°
Sets 03:12:01 0° 14° (NNE) 3,621 8.1 -28.2°
